Home   Weather   Danmarkshavn   Past weeks

Flag for Greenland Past Weather in Danmarkshavn, Greenland — Yesterday and Last 2 Weeks

Now
3 °F

Clear.


Feels Like: -10 °F
Forecast: -10 / 7 °F
Wind: 7 mph from Northwest

Location: Danmarkshavn

Current Time: Dec 3, 2016 at 7:14:07 am

Latest Report: Dec 3, 2016 at 5:00 am


Visibility: 31 mi

Pressure: 29.67 "Hg

Humidity: 58%

Dew Point: -9 °F

Location of DanmarkshavnLocation

Past Weather in Danmarkshavn — Graph

°F

Danmarkshavn Temperature Yesterday

Maximum temperature yesterday: 7 °F (at 11:00 am)
Minimum temperature yesterday: -4 °F (at 12:00 am)
Average temperature yesterday: 4 °F

High & Low Weather Summary for the Past Weeks

 TemperatureHumidityPressure
High20 °F (Nov 24, 7:00 pm)88% (Nov 24, 3:00 pm)30.51 "Hg (Nov 24, 3:00 pm)
Low-7 °F (Nov 21, 10:00 pm)47% (Nov 20, 4:00 pm)29.66 "Hg (Dec 3, 2:00 am)
Average7 °F70%30.00 "Hg
* Reported Nov 18 5:00 am — Dec 3 5:00 am, Danmarkshavn, Weather by CustomWeather, © 2016

Note: Actual official high and low records may vary slightly from our data, if they occured in-between our weather recording intervals... More about our weather records

Advertising

Danmarkshavn Weather History for the Previous 24 Hours

Scroll right to see more
 ConditionsComfort  
Time TempWeatherWind HumidityBarometerVisibility
5:00 am
Sat, Dec 3
3 °FClear.7 mph58%29.67 "Hg31 mi
4:00 am6 °FClear.12 mph49%29.67 "Hg31 mi
3:00 am3 °FClear.10 mph53%29.67 "Hg31 mi
2:00 am3 °FClear.6 mph54%29.66 "Hg31 mi
1:00 am4 °FSunny.6 mph52%29.67 "Hg31 mi
12:00 am6 °FClear.7 mph51%29.67 "Hg31 mi
11:00 pm
Fri, Dec 2
1 °FClear.6 mph58%29.69 "Hg31 mi
10:00 pm5 °FClear.7 mph54%29.71 "Hg31 mi
9:00 pm4 °FClear.8 mph56%29.73 "Hg31 mi
8:00 pm4 °FClear.5 mph59%29.75 "Hg31 mi
7:00 pm5 °FSunny.12 mph62%29.76 "Hg31 mi
6:00 pm5 °FSunny.10 mph62%29.79 "Hg31 mi
5:00 pm2 °FSunny.8 mph65%29.81 "Hg31 mi
4:00 pm6 °FSunny.12 mph58%29.84 "Hg31 mi
3:00 pm6 °FSunny.12 mph61%29.86 "Hg31 mi
2:00 pm6 °FSunny.8 mph62%29.89 "Hg31 mi
1:00 pm4 °FSunny.8 mph60%29.92 "Hg31 mi
12:00 pm5 °FSunny.8 mph64%29.94 "Hg31 mi
11:00 am7 °FSunny.13 mph66%29.96 "Hg31 mi
10:00 am4 °FSunny.14 mph70%29.98 "Hg31 mi
9:00 am5 °FSunny.10 mph70%30.00 "Hg31 mi
8:00 am7 °FPassing clouds.10 mph70%30.02 "Hg31 mi
7:00 am5 °FSunny.10 mph66%30.04 "Hg31 mi
Weather by CustomWeather, © 2016

See weather overviewHow to use our weather pages